TimeCDT,TemperatureF,Dew PointF,Humidity,Sea Level PressureIn,VisibilityMPH,Wind Direction,Wind SpeedMPH,Gust SpeedMPH,PrecipitationIn,Events,Conditions,WindDirDegrees,DateUTC
12:15 AM,57.2,55.4,94,29.52,10.0,SSW,9.2,-,N/A,,Overcast,200,2013-05-20 05:15:00
12:35 AM,57.2,57.2,100,29.51,10.0,South,9.2,-,0.01,,Overcast,190,2013-05-20 05:35:00
12:55 AM,57.2,55.4,94,29.50,10.0,SSW,6.9,-,0.01,,Mostly Cloudy,200,2013-05-20 05:55:00
1:15 AM,57.2,55.4,94,29.51,10.0,SSW,11.5,-,0.01,,Overcast,210,2013-05-20 06:15:00
1:35 AM,57.2,55.4,94,29.50,10.0,SSW,13.8,-,0.02,,Overcast,210,2013-05-20 06:35:00
1:55 AM,57.2,57.2,100,29.51,7.0,SW,15.0,19.6,0.03,,Overcast,220,2013-05-20 06:55:00
2:15 AM,57.2,57.2,100,29.51,6.0,SW,10.4,-,0.02,,Overcast,220,2013-05-20 07:15:00
2:35 AM,57.2,55.4,94,29.52,8.0,West,13.8,-,0.02,,Overcast,280,2013-05-20 07:35:00
3:15 AM,55.4,53.6,94,29.52,10.0,West,12.7,-,0.04,,Overcast,260,2013-05-20 08:15:00
3:35 AM,55.4,53.6,94,29.50,10.0,WNW,15.0,20.7,0.12,,Overcast,290,2013-05-20 08:35:00
3:55 AM,55.4,53.6,94,29.50,9.0,West,12.7,19.6,0.12,,Overcast,270,2013-05-20 08:55:00
4:15 AM,55.4,53.6,94,29.52,10.0,West,11.5,-,0.01,,Overcast,260,2013-05-20 09:15:00
4:35 AM,55.4,53.6,94,29.52,10.0,West,10.4,-,0.01,,Overcast,260,2013-05-20 09:35:00
4:55 AM,55.4,53.6,94,29.51,10.0,WNW,12.7,-,0.01,,Mostly Cloudy,290,2013-05-20 09:55:00
5:15 AM,55.4,53.6,94,29.50,10.0,West,11.5,-,N/A,,Mostly Cloudy,280,2013-05-20 10:15:00
5:35 AM,55.4,53.6,94,29.51,10.0,West,6.9,-,N/A,,Overcast,260,2013-05-20 10:35:00
5:55 AM,55.4,53.6,94,29.50,10.0,West,9.2,-,N/A,,Overcast,270,2013-05-20 10:55:00
6:15 AM,55.4,53.6,94,29.51,10.0,West,10.4,-,N/A,,Overcast,260,2013-05-20 11:15:00
6:35 AM,55.4,53.6,94,29.50,10.0,West,12.7,-,N/A,,Overcast,260,2013-05-20 11:35:00
6:55 AM,55.4,53.6,94,29.51,10.0,West,10.4,16.1,N/A,,Overcast,270,2013-05-20 11:55:00
7:15 AM,55.4,51.8,88,29.53,10.0,SW,9.2,-,N/A,,Mostly Cloudy,230,2013-05-20 12:15:00
7:35 AM,55.4,53.6,94,29.54,10.0,SW,10.4,-,N/A,,Scattered Clouds,230,2013-05-20 12:35:00
7:55 AM,55.4,53.6,94,29.54,10.0,WSW,10.4,-,N/A,,Mostly Cloudy,240,2013-05-20 12:55:00
8:15 AM,57.2,53.6,88,29.54,10.0,SW,8.1,-,N/A,,Scattered Clouds,220,2013-05-20 13:15:00
8:35 AM,57.2,53.6,88,29.54,10.0,SW,13.8,-,N/A,,Partly Cloudy,230,2013-05-20 13:35:00
9:15 AM,59.0,53.6,82,29.55,10.0,SW,15.0,20.7,N/A,,Overcast,220,2013-05-20 14:15:00
9:35 AM,59.0,53.6,82,29.55,10.0,WSW,12.7,-,N/A,,Overcast,240,2013-05-20 14:35:00
10:35 AM,60.8,53.6,77,29.54,10.0,SW,12.7,23.0,N/A,,Overcast,230,2013-05-20 15:35:00
10:55 AM,60.8,51.8,72,29.54,10.0,SW,12.7,23.0,N/A,,Overcast,230,2013-05-20 15:55:00
11:15 AM,62.6,53.6,72,29.54,10.0,SW,13.8,19.6,N/A,,Overcast,220,2013-05-20 16:15:00
11:35 AM,62.6,51.8,68,29.54,10.0,WSW,15.0,21.9,N/A,,Mostly Cloudy,240,2013-05-20 16:35:00
11:55 AM,64.4,53.6,68,29.54,10.0,WSW,17.3,21.9,N/A,,Mostly Cloudy,250,2013-05-20 16:55:00
12:15 PM,64.4,51.8,64,29.54,10.0,SW,13.8,-,N/A,,Mostly Cloudy,230,2013-05-20 17:15:00
12:35 PM,64.4,51.8,64,29.54,10.0,SW,13.8,-,N/A,,Mostly Cloudy,220,2013-05-20 17:35:00
12:55 PM,64.4,51.8,64,29.54,10.0,SSW,13.8,18.4,N/A,,Scattered Clouds,210,2013-05-20 17:55:00
1:15 PM,66.2,51.8,60,29.53,10.0,SW,19.6,24.2,N/A,,Scattered Clouds,230,2013-05-20 18:15:00
1:55 PM,64.4,50.0,59,29.54,10.0,SW,17.3,23.0,N/A,,Overcast,220,2013-05-20 18:55:00
2:15 PM,64.4,51.8,64,29.54,10.0,SW,13.8,-,N/A,,Overcast,220,2013-05-20 19:15:00
2:35 PM,66.2,51.8,60,29.53,10.0,SSW,13.8,-,N/A,,Mostly Cloudy,210,2013-05-20 19:35:00
2:55 PM,64.4,51.8,64,29.53,10.0,SSW,12.7,20.7,N/A,,Overcast,210,2013-05-20 19:55:00
3:15 PM,66.2,51.8,60,29.53,10.0,SSW,15.0,-,N/A,,Mostly Cloudy,210,2013-05-20 20:15:00
3:35 PM,66.2,51.8,60,29.53,10.0,SSW,15.0,20.7,N/A,,Overcast,210,2013-05-20 20:35:00
3:55 PM,66.2,50.0,56,29.52,10.0,SSW,15.0,20.7,N/A,,Overcast,200,2013-05-20 20:55:00
4:15 PM,66.2,50.0,56,29.52,10.0,SSW,17.3,-,N/A,,Overcast,210,2013-05-20 21:15:00
4:35 PM,66.2,51.8,60,29.52,10.0,SSW,12.7,18.4,N/A,,Overcast,200,2013-05-20 21:35:00
4:55 PM,66.2,51.8,60,29.52,10.0,SSW,12.7,-,N/A,,Overcast,200,2013-05-20 21:55:00
5:15 PM,64.4,50.0,59,29.52,10.0,West,11.5,-,N/A,,Overcast,260,2013-05-20 22:15:00
5:35 PM,62.6,51.8,68,29.52,10.0,WSW,6.9,-,N/A,,Overcast,250,2013-05-20 22:35:00
5:55 PM,64.4,51.8,64,29.51,10.0,SW,8.1,-,N/A,,Overcast,220,2013-05-20 22:55:00
6:15 PM,64.4,51.8,64,29.51,10.0,SW,6.9,-,N/A,,Overcast,230,2013-05-20 23:15:00
6:35 PM,64.4,51.8,64,29.50,10.0,SW,9.2,-,N/A,,Overcast,220,2013-05-20 23:35:00
6:55 PM,66.2,51.8,60,29.50,10.0,SW,16.1,20.7,N/A,,Overcast,230,2013-05-20 23:55:00
7:15 PM,62.6,53.6,72,29.51,10.0,WSW,13.8,-,N/A,,Overcast,250,2013-05-21 00:15:00
7:35 PM,62.6,53.6,72,29.51,10.0,WSW,11.5,-,N/A,,Mostly Cloudy,240,2013-05-21 00:35:00
7:55 PM,60.8,55.4,82,29.52,9.0,WSW,13.8,-,N/A,,Mostly Cloudy,250,2013-05-21 00:55:00
8:15 PM,60.8,55.4,82,29.52,10.0,West,12.7,-,N/A,,Overcast,270,2013-05-21 01:15:00
8:35 PM,59.0,55.4,88,29.53,10.0,West,13.8,17.3,N/A,,Overcast,270,2013-05-21 01:35:00
9:15 PM,57.2,55.4,94,29.53,10.0,West,13.8,-,N/A,,Overcast,280,2013-05-21 02:15:00
9:35 PM,57.2,53.6,88,29.54,10.0,West,12.7,-,N/A,,Mostly Cloudy,280,2013-05-21 02:35:00
9:55 PM,57.2,53.6,88,29.54,10.0,West,11.5,-,N/A,,Mostly Cloudy,260,2013-05-21 02:55:00
10:15 PM,57.2,53.6,88,29.55,10.0,West,16.1,23.0,N/A,,Overcast,270,2013-05-21 03:15:00
10:35 PM,57.2,53.6,88,29.55,10.0,West,13.8,-,N/A,,Overcast,270,2013-05-21 03:35:00
10:55 PM,57.2,51.8,82,29.55,10.0,West,10.4,-,N/A,,Overcast,260,2013-05-21 03:55:00
11:15 PM,57.2,53.6,88,29.56,10.0,West,11.5,-,N/A,,Overcast,260,2013-05-21 04:15:00
11:35 PM,57.2,51.8,82,29.56,10.0,West,13.8,-,N/A,,Overcast,260,2013-05-21 04:35:00
11:55 PM,57.2,51.8,82,29.56,10.0,West,12.7,-,N/A,,Mostly Cloudy,260,2013-05-21 04:55:00